TimeAEST,TemperatureF,Dew PointF,Humidity,Sea Level PressureIn,VisibilityMPH,Wind Direction,Wind SpeedMPH,Gust SpeedMPH,PrecipitationIn,Events,Conditions,WindDirDegrees,DateUTC
12:00 AM,60,40,37,29.96,19,South,8.1,,,,Partly Cloudy,190,2013-10-01 14:00:00
12:00 AM,60.8,41.0,48,29.95,-9999.0,South,8.1,-,N/A,,Clear,190,2013-10-01 14:00:00
12:30 AM,60.8,42.8,52,29.95,-9999.0,SSW,9.2,-,N/A,,Clear,210,2013-10-01 14:30:00
1:00 AM,58,43,46,29.96,,SSW,8.1,,,,,210,2013-10-01 15:00:00
1:00 AM,57.2,42.8,59,29.95,-9999.0,SSW,8.1,-,N/A,,Clear,210,2013-10-01 15:00:00
1:30 AM,59.0,42.8,55,29.95,-9999.0,South,10.4,-,N/A,,Clear,180,2013-10-01 15:30:00
2:00 AM,59,42,41,29.98,,SSW,10.4,,,,,200,2013-10-01 16:00:00
2:00 AM,59.0,41.0,51,29.98,-9999.0,SSW,10.4,-,N/A,,Clear,200,2013-10-01 16:00:00
3:00 AM,57,44,50,29.98,25,South,6.9,,,,Partly Cloudy,190,2013-10-01 17:00:00
3:30 AM,55.4,41.0,58,29.98,-9999.0,South,6.9,-,N/A,,Clear,170,2013-10-01 17:30:00
4:00 AM,56,42,49,29.98,,SSE,8.1,,,,,160,2013-10-01 18:00:00
4:00 AM,55.4,42.8,63,29.98,-9999.0,SSE,8.1,-,N/A,,Clear,160,2013-10-01 18:00:00
4:30 AM,57.2,42.8,59,29.98,-9999.0,South,5.8,-,N/A,,Clear,170,2013-10-01 18:30:00
5:00 AM,54,43,55,29.99,,WSW,6.9,,,,,240,2013-10-01 19:00:00
5:00 AM,55.4,42.8,63,29.98,-9999.0,WSW,6.9,-,N/A,,Clear,240,2013-10-01 19:00:00
5:30 AM,55.4,42.8,63,30.01,-9999.0,SW,6.9,-,N/A,,Clear,230,2013-10-01 19:30:00
6:00 AM,55,43,53,30.00,25,WSW,8.1,,,,Partly Cloudy,240,2013-10-01 20:00:00
6:00 AM,55.4,42.8,63,29.98,-9999.0,WSW,8.1,-,N/A,,Clear,240,2013-10-01 20:00:00
6:30 AM,59.0,41.0,51,29.98,6.2,NW,5.8,-,N/A,,Partly Cloudy,310,2013-10-01 20:30:00
7:00 AM,61,41,36,30.00,,NNW,8.1,,,,,330,2013-10-01 21:00:00
7:00 AM,60.8,41.0,48,29.98,6.2,NNW,8.1,-,N/A,,Partly Cloudy,330,2013-10-01 21:00:00
7:30 AM,64.4,39.2,40,29.98,6.2,NNW,9.2,-,N/A,,Partly Cloudy,330,2013-10-01 21:30:00
8:00 AM,66,38,24,29.99,,North,8.1,,,,,0,2013-10-01 22:00:00
8:00 AM,66.2,37.4,35,29.98,6.2,North,8.1,-,N/A,,Partly Cloudy,360,2013-10-01 22:00:00
8:30 AM,68.0,33.8,28,29.98,-9999.0,North,16.1,-,N/A,,Clear,360,2013-10-01 22:30:00
9:00 AM,66,31,17,29.99,19,NNW,15.0,,,,Partly Cloudy,330,2013-10-01 23:00:00
9:00 AM,66.2,32.0,28,29.98,-9999.0,NNW,15.0,-,N/A,,Clear,330,2013-10-01 23:00:00
9:30 AM,68.0,30.2,24,29.98,-9999.0,NNW,13.8,-,N/A,,Clear,340,2013-10-01 23:30:00
10:00 AM,70,29,12,29.96,,NW,17.3,,,,,310,2013-10-02 00:00:00
10:00 AM,69.8,28.4,21,29.95,-9999.0,NW,17.3,-,N/A,,Clear,310,2013-10-02 00:00:00
10:30 AM,71.6,30.2,22,29.95,-9999.0,NW,16.1,-,N/A,,Clear,320,2013-10-02 00:30:00
11:00 AM,74,27,9,29.92,,North,9.2,,,,,350,2013-10-02 01:00:00
11:00 AM,73.4,26.6,18,29.92,-9999.0,North,9.2,-,N/A,,Clear,350,2013-10-02 01:00:00
12:00 PM,76,21,6,29.88,16,NW,12.7,,,,Partly Cloudy,320,2013-10-02 02:00:00
12:00 PM,77.0,21.2,12,29.86,-9999.0,NW,12.7,-,N/A,,Clear,320,2013-10-02 02:00:00
12:30 PM,77.0,23.0,13,29.86,-9999.0,NNW,13.8,-,N/A,,Clear,340,2013-10-02 02:30:00
1:00 PM,77,23,6,29.83,,North,13.8,,,,,350,2013-10-02 03:00:00
1:00 PM,77.0,23.0,13,29.83,-9999.0,North,13.8,-,N/A,,Clear,350,2013-10-02 03:00:00
1:30 PM,78.8,24.8,14,29.80,-9999.0,NNW,16.1,-,N/A,,Clear,330,2013-10-02 03:30:00
2:00 PM,77,26,7,29.78,,NNW,17.3,,,,,330,2013-10-02 04:00:00
2:00 PM,77.0,26.6,16,29.77,-9999.0,NNW,17.3,-,N/A,,Clear,330,2013-10-02 04:00:00
2:30 PM,78.8,26.6,15,29.77,-9999.0,NNW,17.3,-,N/A,,Clear,330,2013-10-02 04:30:00
3:00 PM,81,29,7,29.75,19,NNW,16.1,,,,Partly Cloudy,330,2013-10-02 05:00:00
3:30 PM,80.6,28.4,15,29.74,-9999.0,NNW,15.0,-,N/A,,Clear,330,2013-10-02 05:30:00
4:00 PM,82,30,8,29.73,,NNW,15.0,,,,,330,2013-10-02 06:00:00
4:30 PM,80.6,30.2,16,29.71,-9999.0,WNW,16.1,-,N/A,,Clear,300,2013-10-02 06:30:00
5:00 PM,79,29,8,29.72,,WNW,18.4,,,,,290,2013-10-02 07:00:00
5:00 PM,78.8,28.4,16,29.71,-9999.0,WNW,18.4,-,N/A,,Clear,290,2013-10-02 07:00:00
5:30 PM,78.8,32.0,18,29.71,-9999.0,West,16.1,-,N/A,,Clear,280,2013-10-02 07:30:00
6:00 PM,77,32,11,29.74,25,WNW,16.1,,,,Partly Cloudy,290,2013-10-02 08:00:00
6:00 PM,77.0,32.0,19,29.74,-9999.0,WNW,16.1,-,N/A,,Clear,290,2013-10-02 08:00:00
6:30 PM,77.0,32.0,19,29.74,-9999.0,WNW,18.4,-,N/A,,Clear,290,2013-10-02 08:30:00
7:00 PM,74,33,13,29.77,,WNW,17.3,,,,,290,2013-10-02 09:00:00
7:00 PM,73.4,33.8,23,29.74,-9999.0,WNW,17.3,-,N/A,,Clear,290,2013-10-02 09:00:00
7:30 PM,73.4,33.8,23,29.77,-9999.0,WNW,15.0,-,N/A,,Clear,290,2013-10-02 09:30:00
8:00 PM,73,33,13,29.79,,WNW,19.6,,,,,300,2013-10-02 10:00:00
8:00 PM,73.4,33.8,23,29.77,-9999.0,WNW,19.6,-,N/A,,Clear,300,2013-10-02 10:00:00
8:30 PM,71.6,35.6,27,29.80,-9999.0,WNW,13.8,-,N/A,,Clear,300,2013-10-02 10:30:00
9:00 PM,72,35,16,29.79,25,NW,15.0,,,,Partly Cloudy,320,2013-10-02 11:00:00
9:00 PM,71.6,35.6,27,29.77,-9999.0,NW,15.0,-,N/A,,Clear,320,2013-10-02 11:00:00
9:30 PM,71.6,35.6,27,29.77,-9999.0,NNW,13.8,-,N/A,,Clear,340,2013-10-02 11:30:00
10:00 PM,72,35,16,29.78,,North,12.7,,,,,350,2013-10-02 12:00:00
10:00 PM,71.6,35.6,27,29.77,-9999.0,North,12.7,-,N/A,,Clear,350,2013-10-02 12:00:00
10:30 PM,69.8,35.6,28,29.77,-9999.0,North,10.4,-,N/A,,Clear,360,2013-10-02 12:30:00
11:00 PM,69,36,19,29.77,,North,11.5,,,,,350,2013-10-02 13:00:00
11:00 PM,68.0,35.6,30,29.77,-9999.0,North,11.5,-,N/A,,Clear,350,2013-10-02 13:00:00
11:30 PM,68.0,37.4,33,29.74,-9999.0,North,11.5,-,N/A,,Clear,350,2013-10-02 13:30:00